Location: El Carrer d�Abaix
(41.5797°N, 2.1791°E)
Time: 10:27:51
(UTC+00:00)

STARLINK-1378 - Pass Details

Date: 06 October 2020
Orbit: 549 x 550 km, 53.0° (Epoch: 21 October)

Event Time Altitude Azimuth Distance (km) Brightness Sun altitude
Exits shadow 02:56:34 15° 29° (NNE) 1,537 6.4 -33.1°
Drops below altitude 10° 02:57:28 10° 38° (NE) 1,825 6.9 -33.0°
Sets 02:59:58 0° 50° (NE) 2,721 8.2 -32.6°
